Location: Alafon
(8.4500°N, 4.2333°E)
Time: 05:35:47
(UTC+00:00)

Vanguard 2 - Pass Details

Date: 07 August 2021
Orbit: 553 x 2937 km, 32.9° (Epoch: 24 September)

Event Time Altitude Azimuth Distance (km) Brightness Sun altitude
Rises 19:22:33 0° 211° (SSW) 6,517 12.4 -19.7°
Reaches altitude 10° 19:29:36 10° 193° (SSW) 5,126 11.6 -21.3°
Maximum altitude 19:37:44 17° 158° (SSE) 3,949 10.7 -23.2°
Enters shadow 19:38:18 17° 155° (SSE) 3,904 10.7 -23.3°
Drops below altitude 10° 19:44:08 10° 122° (ESE) 3,921 - -24.7°
Sets 19:48:19 0° 102° (ESE) 4,470 - -25.6°
